GFSWCAN_prec_radar_096.txt.gz
Reflectivity
22 36 25 -12 -20 -3 16 14 -20 -20 -20 -20 -17 -20 -20 -20 -15 -20 -20 -20 -20 -20 -20 -20 -20 -20 -20 -20 -20 -20 -20 -20 -20 -20 -20 -20 -20 -20 -20 -20 -20 -9 -20 -13 -6 -20 -20 -20 -20 -8 11 13 21 24
18 37 23 -18 -20 15 20 15 -20 10 -20 -20 -20 -20 -7 -20 -20 -20 -20 -20 -20 -20 -20 -20 -20 -20 -20 -20 -20 -20 -20 -20 -20 -20 -20 -20 -20 -20 -20 -17 -20 -20 -14 -20 -20 -20 2 -3 9 14 12 17 20 18
18 40 30 5 14 17 18 13 -3 -20 -20 -20 -20 -3 -20 -20 -20 -20 -20 -20 -20 -20 -20 -20 -20 -20 -20 -20 -20 -20 -20 -20 -20 -20 -20 -20 -20 -20 -20 -20 -20 -17 2 -18 -12 3 -7 -3 7 0 10 14 15 7
39 34 24 16 21 -9 13 11 -20 -20 -20 -20 13 -19 -20 -20 -20 -20 -20 -20 -20 -20 -20 -20 -20 -20 -20 -20 -20 -20 -20 -20 -20 -20 -20 -20 -20 -20 -20 -20 -20 -13 -20 -20 -20 5 -19 2 -0 2 10 5 -18 -18
32 15 18 23 -4 -20 -20 -6 -20 -20 2 -6 -15 -20 -20 -20 -20 -20 -20 -20 -20 -20 -20 -20 -20 -20 -20 -20 -20 -20 -20 -20 -20 -20 -20 -20 -20 -20 -18 -20 -20 -20 -20 -20 -20 -19 -8 -5 4 3 -16 -13 -19 -20
15 7 5 11 3 -10 6 -20 -20 -20 -20 -20 -20 -20 -20 -20 -20 -20 -20 -20 -20 -20 -20 -20 -20 -20 -20 -20 -20 -20 -20 -20 -20 -20 -20 -20 -20 -20 -20 -20 -20 -20 -11 -20 -20 -20 -17 -14 -20 -20 -20 -20 -20 -20
15 15 9 10 -20 -15 -20 -20 -20 -7 11 -20 -20 -20 -20 -20 -20 -16 -14 -20 -20 -20 -20 -20 -20 -20 -20 -20 -20 -20 -20 -20 -20 -20 -20 -20 -20 -20 -20 -20 -20 -7 -20 -20 -20 -20 -20 -16 -18 -18 -20 -20 -20 -20
16 15 14 -12 -20 -3 -20 -20 -20 14 16 -20 -20 -20 -20 -20 -20 -20 -20 -20 -20 -20 -20 -20 -20 -20 -20 -20 -11 -20 -20 -20 -20 -20 -20 -20 -20 -20 -20 -20 -20 -20 -20 -20 -5 -20 -20 -20 -20 -20 -20 -20 -20 -20
20 -11 7 4 -20 -20 -20 -20 12 14 -20 -20 -20 -20 -20 -20 -20 -19 -20 -20 -20 -20 -20 -20 -20 -20 -20 -20 -20 -20 -20 -20 -20 -20 -20 -20 -20 -20 -20 -20 -20 -20 -20 0 -12 -20 -20 -20 -20 -20 -20 -20 -20 -20
26 19 18 -20 -20 -20 -20 -19 16 -20 -20 -20 -20 -20 -20 -20 -20 -20 -20 -20 -20 -20 -20 -20 -20 -20 -20 -20 -20 -20 -20 -20 -20 -20 -20 -20 -20 -20 -20 -20 -20 -20 -20 -20 -20 -20 -20 -20 -20 -20 -20 -20 -20 -20
21 6 -17 -20 -20 -20 -20 7 15 -20 -20 -20 -20 -19 -13 -20 -20 -20 -20 -20 -20 -20 -20 -20 -20 -20 -20 -20 -20 -20 -20 -20 -20 -10 -20 -20 -20 -20 -18 -20 -20 -20 -20 -20 -20 -20 -20 -20 -20 -20 -20 -20 -20 -20
17 -10 -20 -20 -20 -20 9 11 -20 -20 -20 -20 -20 -20 -20 -16 -19 -20 -20 -20 -20 -20 -20 -20 -20 -20 -20 -20 -20 -20 -20 -6 -11 -20 -14 7 -20 -20 -20 -18 -20 -20 -20 -17 -20 -20 -20 -20 -20 -20 -20 -20 -20 -20
9 -8 -0 -20 -20 -0 16 -20 -20 -20 -20 -20 -20 -10 -17 -20 -19 -20 -20 -20 -20 -20 -20 -20 -20 -20 -20 -20 -20 -20 -13 15 -12 15 -20 -20 -20 -20 -20 -20 -20 -20 -20 -20 -20 -20 -20 -20 -20 -20 -20 -20 -20 -20
27 13 -20 -20 -20 1 -20 -20 -20 -20 -20 -20 -20 -20 -20 -20 -20 -20 -20 -20 -20 -20 -20 -20 -20 -20 -20 -20 -20 -20 -20 -20 -20 -20 -20 -20 -20 -20 -20 -20 -20 -20 -20 -20 -20 -20 -20 -20 -20 -20 -20 -20 -20 -20
13 6 -7 14 -3 8 -19 -20 -20 -20 -20 -16 -18 -20 -20 -20 -20 -17 -20 -20 -20 -20 -20 -20 -20 -20 -20 -20 -20 -20 -20 -20 -20 -20 -20 -20 -20 -20 -20 -20 -20 -20 -20 -20 -20 -20 -20 -20 -20 -20 -20 -20 -20 -20
16 12 -20 20 18 -20 -20 -20 -20 -20 -20 -20 -20 -19 -20 -20 -20 -19 -18 -20 -20 -20 -20 -20 -20 -20 -20 -20 -20 -20 -20 -20 -20 -20 -20 -20 -20 -20 -20 -20 -20 -20 -20 -20 -20 -20 -20 -20 -20 -20 -20 -20 -20 -20
8 19 18 20 5 -20 -20 -20 -20 -20 -20 -20 -20 -20 -18 -20 -20 -18 -19 -20 -15 -20 -20 -20 -20 -20 -20 -20 -20 -20 -20 -20 -20 -20 -20 -20 -20 -20 -20 -20 -20 -20 -20 -20 -20 -20 -20 -20 -20 -20 -20 -20 -20 -20
-17 7 23 17 -15 -20 -20 -20 -20 -20 -20 -20 -20 -20 -20 -20 -20 -20 -20 -15 -17 -20 -19 -20 -19 -20 -20 -20 -20 -20 -20 -20 -20 -20 -20 -20 -20 -20 -20 -20 -20 -20 -20 -20 -20 -20 -20 -20 -20 -20 -20 -20 -20 -20
4 20 -2 -20 -20 -20 -20 -20 -20 -20 -20 -20 -20 -20 -20 -20 -20 -20 -20 -2 -20 -20 -20 -20 -20 -20 -20 -20 -20 -20 -20 -20 -20 -20 -20 -20 -20 -20 -20 -20 -20 -20 -20 -20 -20 -20 -20 -20 -20 -20 -20 -20 -20 -20
21 12 -18 -20 -20 -20 -20 -20 -20 -20 -20 -20 -20 -20 -20 -17 -20 -20 -20 -20 -20 -20 -20 -20 -20 -20 -20 -20 -20 -20 -20 -20 -20 -20 -20 -20 -20 -20 -20 -20 -20 -20 -20 -20 -20 -20 -20 -20 -20 -20 -20 -20 -20 -20
6 -12 -20 -20 -20 -20 -20 -20 -20 -20 -20 -20 -20 -20 -20 -20 -20 -19 -20 -20 -20 0 -20 -20 -20 -20 -20 -20 -20 -20 -20 -20 -20 -20 -20 -20 -20 -20 -20 -20 -20 -20 -20 -20 -20 -20 -20 -20 -20 -20 -20 -20 -20 -20
3 -20 -20 -20 -20 -20 1 -20 -20 -20 -20 -20 -20 -20 -20 -20 -20 -20 -20 -20 -20 -20 -20 -20 -20 -20 -20 -20 -20 -20 -20 -20 -20 -20 -20 -20 -20 -20 -20 -20 -20 -20 -20 -20 -20 -20 -20 -20 -20 -20 -20 -20 -20 -20
-20 -20 -20 -20 -20 -20 -6 -20 -20 -20 -20 -20 -20 -20 -20 -20 -20 -20 -20 -20 -20 -20 -20 -20 -20 -20 -20 -20 -20 -20 -20 -20 -20 -20 -20 -20 -20 -20 -20 -20 -20 -20 -20 -20 -20 -20 -20 -20 -20 -20 -20 -20 -20 -20
-20 -20 -20 -20 -20 -20 -2 2 -20 -20 -20 -20 -20 -20 -20 -20 -20 -20 -20 -20 -20 -20 -20 -20 -20 -20 -20 -20 -20 -20 -20 -20 -20 -20 -20 -20 -20 -20 -20 -20 -20 -20 -20 -20 -20 -20 -20 -20 -20 -20 -20 -20 -20 -20
-20 -20 -20 -20 -20 -20 -20 -20 -20 -20 -20 -20 -20 -20 -20 -20 -20 -20 -20 -20 -20 -20 -20 -20 -20 -20 -20 -20 -20 -20 -20 -20 -20 -20 -20 -20 -20 -20 -20 -20 -20 -20 -20 -20 -20 -20 -20 -20 -20 -20 -20 -20 -20 -20
-20 -20 -20 -20 -20 -20 -20 -20 -20 -20 -20 -20 -20 -20 -20 -20 -20 -20 -20 -20 -20 -20 -20 -20 -20 -20 -20 -20 -20 -20 -20 -20 -20 -20 -20 -20 -20 -20 -20 -20 -20 -20 -20 -20 -20 -20 -20 -20 -20 -20 -20 -20 -20 -20
-20 -20 -20 -20 -20 -20 -20 -20 -20 -20 -20 -20 -20 -20 -20 -20 -20 -20 -20 -20 -20 -20 -20 -20 -20 -20 -20 -20 -20 -20 -20 -20 -20 -20 -20 -20 -20 -20 -20 -20 -20 -20 -20 -20 -20 -20 -20 -20 -20 -20 -20 -20 -20 -20
-20 -20 -20 -20 -20 -20 -20 -20 -20 -20 -20 -20 -20 -20 -20 -20 -20 -20 -20 -20 -20 -20 -20 -20 -20 -20 -20 -20 -20 -20 -20 -20 -20 -20 -20 -20 -20 -20 -20 -20 -20 -20 -20 -20 -20 -20 -20 -20 -20 -20 -20 -20 -20 -20
-20 -20 -20 -20 -20 -20 -20 -20 -20 -20 -20 -20 -20 -20 -20 -20 -20 -20 -20 -20 -20 -20 -20 -20 -20 -20 -20 -20 -20 -20 -20 -20 -20 -20 -20 -20 -20 -20 -20 -20 -20 -20 -20 -20 -20 -20 -20 -20 -20 -20 -20 -20 -20 -20
-20 -20 -20 -20 -20 -20 -20 -20 -20 -20 -20 -20 -20 -20 -20 -20 -20 -20 -20 -20 -20 -20 -20 -20 -20 -20 -20 -20 -20 -20 -20 -20 -20 -20 -20 -20 -20 -20 -20 -20 -20 -20 -20 -20 -20 -20 -20 -20 -20 -20 -20 -20 -20 -20
-20 -20 -20 -20 -20 -20 -20 -20 -20 -20 -20 -20 -20 -20 -20 -20 -20 -20 -20 -20 -20 -20 -20 -20 -20 -20 -20 -20 -20 -20 -20 -20 -20 -20 -20 -20 -20 -20 -20 -20 -20 -20 -20 -20 -20 -20 -20 -20 -20 -20 -20 -20 -20 -20
-20 -20 -20 -20 -20 -20 -20 -20 -20 -20 -20 -20 -20 -20 -20 -20 -20 -20 -20 -20 -20 -20 -20 -20 -20 -20 -20 -20 -20 -20 -20 -20 -20 -20 -20 -20 -20 -20 -20 -20 -20 -20 -20 -20 -20 -20 -20 -20 -20 -20 -20 -20 -20 -20
-4 3 -4 -8 -20 -20 -20 -7 -2 -19 -20 -20 -20 -20 -20 -20 -20 -20 -20 -20 -20 -20 -20 -20 -20 -20 -20 -20 -20 -20 -20 -20 -20 -20 -20 -20 -20 -20 -20 -20 -20 -20 -20 -20 -20 -20 -20 -20 -20 -20 -20 -20 -20 -20

GFSWCAN_prec_radar_102.txt.gz
Reflectivity
19 -20 -20 12 28 19 19 18 9 2 -20 -20 -17 -20 -18 12 -6 8 -4 -20 -20 -20 -20 -20 -20 -20 -20 -20 -20 -20 -20 -20 -20 -20 -20 -20 -1 2 -9 -9 13 8 7 3 5 6 11 -20 -19 -6 2 4 -1 -3
21 -19 -2 31 22 2 12 2 12 -20 -20 -20 -18 -20 -20 -20 9 -12 -14 -9 -20 -20 -20 -20 -20 -20 -20 -20 -20 -20 -20 -20 -20 -20 -20 -20 -20 -4 0 6 -3 5 -10 12 -11 5 -12 -4 -1 -2 3 3 4 9
-8 -1 34 26 11 10 7 13 -20 -20 -20 -20 -14 -7 -3 -5 -20 -1 -20 -13 -20 -20 -20 -20 -20 -20 -20 -20 -20 -20 -20 -20 -20 -20 -20 -20 -4 -16 7 4 -4 -20 -4 2 -14 4 1 -0 -3 -1 2 -3 10 5
-9 19 28 17 10 13 8 -14 -20 -14 -20 -20 -8 -12 -20 -20 -8 -13 -20 -20 -20 -20 -20 -20 -20 -20 -20 -20 -20 -20 -20 -20 -20 -20 -20 -20 -20 -17 -6 -8 -5 -17 -10 -13 3 4 -1 1 2 -2 -3 -4 5 10
-0 23 16 14 13 13 -13 -20 -20 -16 5 -13 -18 -20 -15 8 -7 -20 -20 -20 -20 -20 -20 -20 -20 -20 -20 -20 -20 -20 -20 -20 -20 -20 -20 -20 -20 -6 -0 -13 -16 -20 -18 -1 -7 -9 2 2 3 2 -1 -3 -4 -20
36 18 -16 11 21 1 -20 -19 -20 -20 -18 -19 -9 -19 -19 -20 -20 -20 22 -20 -20 -20 -20 -20 -20 -20 -20 -20 -20 -20 -20 -20 -20 -20 -20 -20 -20 -15 1 1 -12 -20 -20 -20 -7 2 -20 1 0 -2 -20 -13 -19 -20
35 21 16 9 8 12 -13 -20 -20 -20 -18 -3 -20 -20 -16 -20 -20 -20 -20 -20 -20 -20 -20 -20 -20 -20 -20 -20 -20 -20 -20 -20 -20 -20 -20 -20 -20 -17 -0 -1 -20 -9 -1 -14 -20 -20 -2 -13 -17 -20 -20 -20 -18 -20
24 11 -9 4 -10 -4 -10 -13 -20 -0 -20 -20 -20 -20 -20 -20 -20 -20 -20 -20 -20 -20 -20 -20 1 -20 -20 -20 -12 -20 -20 -20 -19 -20 -20 -20 -20 -8 -20 -20 -10 -6 -20 -1 2 -7 -20 -20 -20 -20 -20 -20 -20 -20
13 -17 -13 -2 5 -3 9 -20 -0 -10 -20 -20 -20 -20 -20 -20 -20 -20 -20 -20 -20 -20 -20 -20 -20 4 -20 -15 -10 -5 -16 -11 -17 1 -20 -20 2 -8 -17 -17 -20 -11 -8 -10 -6 -20 -20 -20 -20 -20 -20 -20 -20 -20
-20 -20 -20 -20 -20 -20 -11 11 -20 -15 -20 -20 -20 -20 -20 -20 -20 -20 -20 -20 -20 -20 -20 -20 -20 1 -12 -8 -15 -1 -13 2 2 0 -19 1 4 -20 -20 -20 -3 -15 1 -15 -5 -15 -20 -20 -20 -20 -20 -20 -20 -20
-20 -20 -20 -20 -20 -20 -20 -2 -20 -20 -19 -20 -20 -6 -20 -20 -20 -20 -20 -20 -20 -20 -20 -20 -13 -9 -20 5 4 -19 -5 -2 -13 9 2 9 -1 -15 -20 -17 -20 -3 -1 -1 -5 -15 -20 -20 -20 -20 -20 -20 -20 -20
-20 -4 -20 -20 -20 -20 -20 -20 -20 -20 -20 -20 -20 -20 -20 -20 -20 -20 -20 -20 -20 -20 -20 -3 -3 5 -12 -20 -12 -20 -9 -13 14 -19 6 9 12 -1 -4 -12 -0 -17 -18 -20 -20 -20 -20 -20 -20 -20 -20 -20 -20 -20
-3 -20 -20 8 7 -20 -20 -20 -20 -20 -20 -20 -20 -20 -20 -20 -20 -20 -20 -15 -1 -6 -8 -20 -16 -20 -20 -10 -1 -4 -14 16 -17 12 19 5 -16 -18 -19 -20 -20 -20 -20 -20 -20 -20 -20 -20 -20 -20 -20 -20 -20 -20
-20 -20 0 -20 -20 -20 -20 -20 -20 -20 -20 -20 -20 -20 -20 -20 -19 -15 -2 1 0 -2 -20 -20 -20 14 -20 -9 -20 -4 -18 -20 2 9 20 -19 -20 -20 -19 -19 -20 -20 -20 -20 -20 -20 -20 -20 -20 -20 -20 -20 -20 -20
-20 -20 -20 -20 4 -20 -20 -20 -20 -20 -20 -20 -20 -3 4 -4 -8 1 -1 5 -20 -20 -20 -20 -20 -2 -20 -20 -19 -20 -7 0 8 14 -13 -20 -20 -20 -20 -20 -20 -20 -20 -20 -20 -20 -20 -20 -20 -20 -20 -20 -20 -20
-10 -11 -20 16 -20 -20 -20 -20 -20 -20 -20 -20 -13 8 -14 13 15 14 12 5 2 -14 -17 -20 -20 -20 -20 -15 -16 -14 2 7 4 -2 -16 -5 -9 -20 -20 -20 -20 -20 -20 -20 -20 -20 -20 -20 -20 -20 -20 -20 -20 -20
-20 -4 19 -20 -20 -20 -20 -20 -20 -20 -20 -14 10 -17 1 2 6 0 13 1 -19 5 -2 -20 -20 -20 -3 -14 -20 -5 1 0 -20 -18 -15 -20 -20 -20 -20 -20 -20 -20 -20 -20 -20 -20 -20 -20 -20 -20 -20 -20 -20 -20
-12 11 -17 -20 -20 -20 -20 -20 -20 -20 -20 9 12 0 -1 9 10 -4 -10 -20 -6 -4 -9 4 -4 -3 -1 -16 -14 -2 -20 -11 -10 -15 -4 -4 -20 -20 -20 -20 -20 -20 -20 -20 -20 -20 -20 -20 -20 -20 -20 -20 -20 -20
-7 -20 -20 -20 -20 -20 -20 -20 -20 -20 4 9 2 -20 -20 -9 -9 -12 -11 -20 -14 -20 -1 -20 -20 -12 -3 -20 -4 -20 -20 -20 -20 -20 -20 -20 -20 -20 -20 -20 -20 -20 -20 -20 -20 -20 -20 -20 -20 -20 -20 -20 -20 -20
-20 -20 -20 -20 -20 -20 -20 -20 -15 -19 1 1 -20 -20 -7 -15 -20 2 4 1 -3 -15 -20 -20 -20 -5 0 -17 -20 -20 -20 -20 -20 -20 -20 -20 -20 -20 -20 -20 -20 -20 -20 -20 -20 -20 -20 -20 -20 -20 -20 -20 -0 -5
-20 -20 -20 -20 -20 -20 -20 -20 -20 -2 -20 1 -11 -7 -5 1 -1 1 2 -20 -4 -20 -20 -20 -20 -20 -20 -20 -20 -20 -20 -20 -20 -20 -20 -20 -20 -20 -20 -20 -20 -20 -20 -20 -20 -20 -20 -5 -20 -20 -20 3 -20 -20
-20 -20 -20 -20 -20 -20 -15 -20 -10 -8 -8 -12 -2 2 -0 3 3 5 -1 2 -3 -20 -20 -20 -20 -20 -20 -20 -20 -20 -20 -20 -20 -20 -20 -20 -20 -20 -20 -20 -20 -20 -20 -20 -20 -20 0 -20 -20 -20 -20 -20 -20 -20
-20 -20 -20 -20 -20 -20 -19 -20 4 -8 -20 -2 -7 -18 -19 -17 -14 -1 -8 -11 1 -20 -20 -20 -20 -20 -20 -20 -20 -20 -20 -20 -20 -20 -20 -20 -20 -20 -20 -20 -20 -11 -20 -20 -20 -11 -11 -20 -20 -20 -20 -20 -11 -1
-20 -20 -20 -20 -20 -20 -20 6 -6 -13 -16 -20 -20 -20 -19 -6 -20 -8 -10 -20 -19 -20 -13 -20 -20 -20 -20 -20 -20 -20 -20 -20 -20 -20 -20 -20 -20 -20 -20 -20 -20 -20 -20 -20 -20 -20 -20 -20 -20 -20 -20 -20 -2 -1
-20 -20 -20 -20 -20 -20 -20 3 -1 -20 -20 -20 -20 -20 -19 -20 -2 -20 -20 -20 -20 -20 -20 -20 -20 -20 -16 -20 -20 -20 -20 -20 -20 -20 -20 -20 -20 -20 -20 -20 -20 -20 -20 -20 4 -1 -2 -20 -17 -20 -20 -4 -17 -20
-20 -20 -20 -20 -20 -20 -20 -20 -20 -20 -20 -20 -20 -20 -20 -1 -20 -20 -20 -20 -20 -11 -4 -20 -20 -20 -20 -20 -20 -20 -20 -20 -20 -20 -20 -20 -20 -20 -8 -9 -7 -20 -20 -13 -19 -20 -20 -20 -20 -20 -20 -20 -20 -20
-20 -20 -20 -20 -20 -20 -7 -20 -20 -18 -20 -20 -20 -15 -13 -20 -20 -20 -20 -20 -20 -20 -20 -20 -20 -12 -20 -20 -20 -20 -20 -20 -20 -20 -20 -20 -20 -20 -20 -20 -20 -20 -20 -20 -20 -20 -20 -20 -20 -20 -20 -20 -20 -20
-20 -20 -20 -20 -20 -20 -18 -13 -20 -20 -20 -20 -20 -20 -20 -20 -10 1 11 -9 -19 -20 -20 -20 -20 -20 -20 -20 -20 -20 -20 -20 -20 -20 -20 -20 -20 -20 -20 -20 -20 -20 -20 -20 -20 -20 -20 -20 -20 -20 -20 -20 -20 -20
-20 -20 -20 -20 -19 -20 -20 -20 -20 -20 -20 -20 -20 -20 -20 -20 -20 -20 -20 -13 -17 -7 -20 -20 -20 -20 -20 -20 -20 -20 -20 -20 -20 -20 -20 -19 -6 -20 -20 -20 -20 -20 -20 -20 -20 -20 -20 -20 -20 -20 -20 -20 -20 -20
-20 -20 -20 -20 -20 -20 -20 -20 -20 -20 -20 -20 -20 -20 -20 -20 -20 -20 -20 -20 -20 -11 -19 -2 -20 -14 -20 -20 -20 -20 -10 -1 -20 -20 -20 -20 -20 -20 -20 -20 -20 -20 -20 -20 -20 -20 -20 -20 -20 -20 -20 -20 -20 -20
-20 -20 -20 -20 -20 -20 -20 -20 -20 -20 -20 -20 -20 -20 -20 -20 -20 -20 -20 -20 -16 -20 -20 -20 -20 -20 -20 -20 -20 -20 -20 -20 -20 -20 -20 -20 -20 -20 -20 -20 -20 -20 -20 -20 -20 -20 -20 -20 -20 -20 -20 -20 -20 -20
-20 -16 -20 -20 -20 -20 -20 -20 -20 -20 -20 -20 -20 -20 -20 -20 -20 -20 -20 -20 -20 -19 -19 -20 -20 -20 -20 -20 -20 -20 -20 -20 -20 -20 -20 -20 -20 -20 -20 -20 -20 -20 -20 -20 -20 -20 -20 -20 -20 -20 -20 -20 -20 -20
-16 -11 -20 -20 -20 -20 -20 -18 -19 -20 -20 -20 -20 -20 -20 -20 -20 -20 -20 -20 -20 -6 -8 -20 -20 -20 -20 -20 -20 -20 -20 -20 -20 -20 -20 -20 -20 -20 -20 -20 -20 -20 -20 -20 -20 -20 -20 -20 -20 -20 -20 -20 -20 -20

GFSWCAN_prec_radar_105.txt.gz
Reflectivity
-18 13 1 -10 -1 35 31 33 23 27 7 -3 -20 -20 -20 10 7 7 28 -15 10 24 -20 -18 -20 -18 -20 -20 3 -20 -20 -20 -20 -19 -3 -16 4 -7 6 -8 7 0 3 -3 7 11 17 -20 -20 -1 -3 -5 -20 -5
-20 17 2 -3 9 17 29 24 -5 -20 -20 -20 -20 -20 -10 1 15 21 29 -2 -20 11 -20 -10 -20 -20 -20 -20 -20 -20 -20 -20 -20 -4 -20 -20 6 -11 -4 5 -20 5 -0 22 -1 7 -18 -7 -20 -19 -20 -5 2 -1
6 5 15 32 27 19 27 2 -20 -20 -20 -19 -14 -14 17 21 18 9 18 -16 7 -18 -8 -20 -20 -20 -20 -20 -20 -20 -20 -20 -20 -20 9 6 14 -15 5 -18 -16 -5 -17 2 -14 -3 -18 -15 -11 -2 -4 -4 -2 -2
-20 -1 33 29 20 12 -20 -3 -20 -20 -20 -3 15 -1 18 2 2 -14 6 -0 -4 -2 6 -20 -20 -20 -20 -20 -20 -20 -20 -20 -20 -20 -20 14 7 -13 17 -8 21 -4 -1 -10 -4 -15 -9 -20 -12 -7 -6 -2 -2 -2
-19 26 35 13 10 -10 -19 2 0 -20 10 -2 -19 -15 -2 -4 -20 -10 13 -19 -19 -4 -20 -20 -20 -20 -20 -20 -20 -20 -20 -20 -20 -20 -20 9 -11 -9 -8 -0 -8 -16 -6 -10 12 -20 -8 -20 -8 -8 -3 -4 -14 -20
2 27 11 17 13 5 -19 -20 -20 -20 16 21 -14 -20 -20 -15 -16 3 20 -20 -20 -20 -20 2 -20 -20 -20 -20 -20 -20 -20 -20 -20 -20 -20 -20 -20 -16 6 6 -20 -20 -20 -20 -20 -20 -20 -20 -18 -6 -3 -4 -20 -20
-4 -14 13 15 6 -5 -20 -20 -20 -11 14 -19 -20 -20 9 -20 -20 12 2 -20 -20 -20 -20 -20 -20 -20 -20 -20 -20 -20 -20 -20 -20 -20 -20 -20 -20 -16 2 9 -20 -8 -20 -20 -20 -20 -10 -18 -7 -20 -20 -20 -20 -20
21 6 14 11 -20 -20 -20 -20 -12 4 -20 -7 -20 -17 -20 -20 -20 -6 -15 -20 -20 1 -20 -20 3 -20 -20 -20 -9 -20 -20 -20 -20 -20 -20 -20 -20 -20 0 -18 -20 -10 -17 -12 -13 -11 -20 -20 -20 -20 -20 -20 -20 -20
15 -16 32 6 -16 -13 -20 -18 -20 -10 -20 -20 -20 -20 -20 -20 -20 -20 -20 -20 -20 -20 -20 -20 -19 4 -20 -8 -6 -20 -20 -15 -20 -1 -2 -20 7 -2 3 -20 -20 -18 -10 -20 -20 -20 -20 -20 -20 -20 -20 -20 -20 -20
10 10 -19 10 -7 7 14 -20 -13 -20 -20 -20 -20 -20 -20 -20 -20 -20 -20 -20 -20 -20 -20 0 -20 -6 -20 2 2 1 -20 3 6 4 -19 -9 6 -20 -20 -20 -20 -17 -20 -20 -20 -9 -20 -20 -20 -20 -20 -20 -20 -20
9 -8 -14 -20 2 -20 -20 -20 -20 -20 -20 -20 -20 -17 -20 -20 -20 -20 -20 -20 -20 -20 -20 -8 -3 1 -8 5 3 -19 4 5 8 10 5 11 7 -12 -20 -20 -5 -20 -20 -20 -2 -20 -20 -20 -20 -20 -20 -20 -20 -20
-20 -20 -20 4 -18 -7 -20 -20 -20 -20 -20 -20 -20 -20 -20 -20 -20 -20 -20 -20 -20 -20 -20 -3 5 4 4 -20 7 -19 3 -1 15 10 9 2 0 -20 -20 -18 -20 -20 -20 -20 -11 -11 -8 -20 -20 -20 -20 -20 -20 -20
-12 -18 12 -20 -15 -19 -20 -20 -20 -18 -20 -20 -20 -20 -20 -20 -20 -20 -20 -20 -3 0 -16 2 -11 3 -20 5 0 -4 -13 18 6 13 22 8 -19 -20 -7 -2 -19 -20 -20 -9 -3 -20 -20 -20 -20 -20 -20 -20 -20 -20
-8 -20 7 -20 -20 -20 -20 -20 -20 -20 -20 -20 -20 -20 -20 -20 -18 -15 -0 -2 -3 -6 6 -5 0 8 8 6 4 2 5 -8 5 17 24 -5 -18 -20 -18 -13 -4 -20 -19 -4 -19 -20 -20 -20 -20 -20 -20 -20 -20 -20
-20 -12 -20 -20 -20 -20 -20 -20 -20 -20 -20 -15 -20 -4 4 2 9 8 -8 -3 -18 6 8 7 -16 10 5 -11 -14 -7 -4 -5 9 24 -3 -20 -20 -15 -9 -18 -20 -20 -20 -20 -20 -20 -20 -20 -20 -20 -20 -20 -20 -20
-20 -20 10 -20 -20 -20 -20 -20 -20 -20 -20 -4 -3 10 12 12 14 13 13 4 -14 -0 14 7 -13 8 -2 2 -3 -2 10 15 17 -10 -20 -20 -12 -20 -4 1 -11 -9 -5 -16 -20 -20 -20 -20 -20 -20 -20 -20 -20 -20
-2 -1 10 -20 -20 -20 -20 -20 -20 -20 -3 10 12 3 19 12 14 -1 19 12 -6 14 4 1 -13 2 -6 -2 1 -0 9 3 -6 -20 -20 -20 -19 -4 -12 -19 -7 -9 -20 -20 -20 -20 -20 -20 -20 -20 -20 -20 -20 -20
-4 -20 -20 -20 -20 -20 -20 -20 -13 2 6 16 10 4 6 9 2 -5 -20 -3 11 8 -1 1 3 -16 -6 -1 11 -20 -20 -20 -7 -16 -20 -20 -18 -18 -20 -20 -20 -20 -20 -20 -20 -20 -20 -20 -20 -20 -20 -20 -20 -20
-12 -20 -20 -20 -20 -20 -20 -12 -1 -1 12 9 8 8 5 -4 -20 -20 -20 -20 -20 5 2 -20 -16 2 -16 6 -11 -20 -20 -15 -10 -14 -17 -20 -20 -20 -20 -20 -20 -18 -20 -20 -20 -20 -20 -20 -20 -20 -20 -20 -20 -20
-20 -20 -20 -20 -20 -20 -20 -10 -13 -3 9 7 2 -8 -14 -6 5 2 8 -11 4 0 -5 -10 -11 8 2 -16 -20 -5 -10 -20 -20 -18 -4 -10 -5 -20 -20 -20 -20 -13 -20 -20 -20 -20 -20 -20 -20 -20 -20 -20 -10 -15
-20 -20 -20 -20 -20 -20 -20 -17 -20 -16 -5 3 -20 -20 -4 -9 -20 -20 7 -19 2 -5 -20 -0 6 -13 -20 -20 -20 -20 -20 -20 -20 -20 -20 -5 -19 -20 -20 -20 -20 -20 -20 -20 -20 -20 -20 -20 -20 -15 -1 4 3 0
-20 -20 -20 -20 -20 -12 -8 -1 -17 -20 -16 -7 -18 -20 -20 -20 -12 6 -19 -13 -6 -5 1 -8 1 -12 -20 -20 -20 -20 -20 -20 -20 -20 -20 -20 -20 -20 -9 -20 -20 -13 -18 -20 -20 -4 -3 -3 -4 -4 9 1 -1 -2
-20 -20 -20 -20 -20 -20 -3 -11 -0 -13 -20 -20 -20 -9 -2 -4 -4 -5 -12 -15 -12 -20 -18 -20 -20 -20 -20 -20 -20 -20 -20 -20 -20 -20 -20 -20 -20 -6 -11 -2 -13 -11 -12 -12 -20 -3 0 -20 -1 5 -13 -0 -0 -2
-20 -20 -20 -20 -20 -10 -15 -13 -2 -4 -3 -6 -6 -5 -16 -17 -18 -17 -5 -16 -20 -20 -20 -20 -20 -20 -20 -20 -20 -20 -20 -20 -20 -20 -17 -20 -20 -14 -14 -19 -20 -6 -4 -19 -20 -10 -4 0 -4 -1 -1 -0 2 1
-20 -20 -20 -20 -20 -1 6 -1 -5 -20 -3 -11 -20 -4 -20 -8 -20 -3 -18 1 -19 -5 -20 -10 -7 -20 -18 -19 -19 -20 -20 -20 -20 -20 -20 -20 -20 -20 -16 -3 -20 -20 -20 -1 4 3 5 -4 -1 4 3 1 1 -1
-20 -20 -14 -20 -7 2 7 3 -1 -4 -4 -2 -4 -8 -10 -20 -11 -3 -20 -7 -20 -20 -20 -10 -8 -14 -20 -20 -12 -20 -20 -20 -20 -20 -20 -20 -20 -8 -12 -4 5 -0 -20 5 5 2 1 1 1 -1 0 -14 -20 -10
-20 -17 -20 -20 3 -1 1 2 2 5 -1 -17 1 -5 -11 -7 -5 -17 -20 -20 -20 -20 -5 -20 -7 -12 -19 -20 -20 -20 -20 -20 -20 -20 -20 -20 -20 -20 -16 -14 -2 -4 4 8 4 -0 -1 -1 -3 -3 -1 0 -7 -20
-20 -20 -4 -5 -9 -2 14 12 8 2 5 -4 -9 -2 -3 -10 10 -14 -4 -2 -20 -20 -20 -20 -20 -20 -20 -20 -20 -20 -8 -20 -20 -20 -20 -20 -20 -17 -10 -2 -9 -20 4 1 4 0 -1 -3 -2 -1 -1 -17 -20 -20
-15 -20 -4 -20 0 -0 8 11 12 5 -20 -15 2 6 6 -20 -20 -20 -20 -19 -3 -17 -20 -20 -7 -17 -20 -19 -20 -14 -6 -4 -20 -18 -18 -2 -1 -3 -4 -3 -3 -6 -1 -5 -20 -5 -5 -4 -1 -5 -20 -20 -20 -20
-20 -20 -8 -2 -20 -11 2 6 5 -20 -20 -20 -20 -20 -20 -20 -20 -20 -20 -14 -5 -9 -20 -20 -10 -13 -8 -5 -2 -6 -16 -4 2 -0 -1 -3 -2 -4 -7 -4 -2 -3 -10 -20 -20 -20 -20 -20 -20 -20 -20 -20 -20 -20
-2 -20 -3 2 2 -17 -10 -6 -10 -20 -20 -13 -10 -15 -2 -18 -20 -20 -20 -16 -16 -20 -4 -6 -12 -20 -20 -20 -7 -4 -5 -6 -15 -19 1 -19 -20 -4 -3 -2 -2 -1 -5 -20 -20 -20 -20 -20 -20 -20 -20 -20 -20 -20
-5 -14 1 -2 -1 -20 -20 -6 -20 -19 -20 -2 -8 -7 -18 -6 -3 -18 -5 -4 -4 -8 3 -20 -19 -20 -15 -19 -15 -18 -19 -19 -5 -20 -20 -20 -3 -5 -3 -3 -19 -20 -20 -20 -20 -20 -20 -20 -20 -20 -20 -20 -20 -20
4 -1 -9 -2 -3 -9 -5 -5 -4 -4 -5 -4 -5 -9 -17 -9 -5 -20 -5 -11 -15 -18 -1 1 -3 -16 -8 -18 -16 -16 -20 -18 -10 -20 -20 -20 -20 -20 -11 -8 -20 -20 -20 -20 -20 -20 -20 -20 -20 -20 -20 -20 -20 -20

GFSWCAN_prec_radar_108.txt.gz
Reflectivity
-14 14 6 15 -14 -10 3 11 1 8 -2 12 27 24 3 -18 18 24 24 14 29 38 8 32 13 34 19 -16 -20 -20 -20 -20 -20 -14 -9 11 14 -20 -10 -9 -20 -14 -4 -20 -9 4 9 -20 -20 -18 -8 -20 -20 -20
1 12 -19 -16 0 20 37 33 7 9 5 18 26 22 2 -20 6 15 20 12 26 33 -6 -6 8 -19 -19 12 23 -20 -19 -20 -20 -20 -20 -20 -16 -20 -4 8 1 7 -18 24 -19 -0 -20 -20 -6 -20 1 -20 -14 -20
9 -15 -9 13 34 35 31 28 24 28 25 -0 5 8 4 -17 -8 -10 29 15 19 2 -11 -1 -0 -7 -10 -20 -2 -13 -20 -20 -20 -20 19 9 10 -17 -10 9 -20 -20 -20 -20 -20 -20 -20 -20 -20 -20 -20 -20 -20 -4
-2 -14 4 32 35 35 23 -11 -20 -20 -20 -20 -20 -20 11 5 21 27 26 5 10 22 21 -16 -20 -20 -20 -20 -20 -20 -20 -20 -20 -20 3 7 16 -11 6 -15 2 -15 -20 -18 -3 -20 -20 -20 -13 -16 -20 -20 -20 -20
3 5 27 38 31 26 -20 -20 -20 -20 -20 -3 8 -13 7 29 11 28 11 21 27 15 -8 -10 -19 -20 -20 -20 -20 -20 -20 -20 -20 -20 3 20 -8 -20 -3 2 -3 -7 -20 -4 6 -20 -15 -17 -20 -11 -20 -15 -20 -20
3 29 35 31 -1 -1 -20 -20 -20 -20 -20 -0 -20 -8 8 -16 -6 34 31 17 16 -10 -19 3 -20 -20 -20 -20 -20 -20 -20 -20 -20 -20 -20 -19 -20 -20 2 2 -20 -20 -20 -20 -20 -20 -20 -20 -20 -20 -20 -20 -20 -20
9 33 26 10 -13 2 -20 -20 -20 -20 -20 1 9 -20 -13 -20 23 -1 5 -20 -20 -20 4 -20 -20 -20 -20 -20 -20 -20 -20 -20 -20 -20 -20 -20 -20 -16 15 14 -20 -20 -20 -20 -20 -20 -20 -20 -14 -20 -20 -20 -20 -20
16 30 20 1 -1 -20 -20 -20 -1 -11 -3 -20 -20 -20 -14 4 19 -15 -20 -19 -8 -20 2 -10 5 -20 -20 -20 -19 -20 -20 -20 -20 -20 -20 -20 -20 -20 5 -20 -20 -20 -20 -20 -20 -20 -20 -20 -20 -20 -20 -20 -20 -20
26 13 15 7 -20 -20 -20 -13 -8 11 -20 -20 -5 11 -5 9 8 -4 -20 -20 -20 -20 7 -14 -19 -5 -20 -6 -19 -20 -20 -14 -20 -5 -20 -20 11 -17 -6 -20 -20 -20 -20 -20 -20 -20 -20 -20 -20 -20 -20 -20 -20 -20
19 11 -16 -20 -20 -8 -20 -20 16 -20 -20 -20 -16 17 18 -20 -8 -20 -20 25 -19 -20 -20 -7 -12 -20 -20 -9 -16 -5 -20 8 4 -18 -20 -20 9 -20 -20 -20 -20 -20 -20 -20 -20 -20 -20 -20 -20 -20 -20 -20 -20 -20
8 35 -18 -20 -10 11 -19 13 7 -20 -20 -20 -8 2 -20 -20 -20 -20 -1 -10 -20 -20 -20 3 -20 -18 -20 -5 -15 -18 -3 -5 2 8 -12 5 -6 -20 -20 -20 -20 -20 -20 -20 -20 -20 -20 -20 -20 -20 -20 -20 -20 -20
21 4 -19 -9 3 -19 -20 -20 -20 -20 -10 -20 -20 -20 -20 -20 -20 -20 -20 -20 -16 -20 -20 1 2 -9 1 -20 -4 -20 -7 -13 9 0 10 1 -18 -20 -7 -20 -17 -20 -10 -20 -20 -20 -20 -20 -20 -10 -20 -20 -20 -20
-17 -20 4 -20 -20 -20 -8 -17 -1 -20 -20 -20 -15 -17 -20 -20 -8 -20 -20 -20 1 -20 -2 3 4 -20 -1 -5 -19 -8 -18 7 -1 4 2 -10 -20 -20 -7 -17 -19 0 -20 -20 -20 -20 -20 -20 -20 -20 -20 -20 -20 -20
-20 -19 -19 -20 -20 -20 -20 -20 -20 -20 -20 -3 -20 -20 11 -11 -11 7 21 -19 -20 -20 10 -17 -18 14 9 -20 2 1 4 -5 2 13 20 -20 -20 -6 -12 -17 -20 -11 -10 -20 -20 -20 -20 -20 -20 -20 -20 -20 -20 -20
-10 10 3 3 -20 -20 -20 -20 -20 -20 -7 -5 -20 2 5 -9 3 4 -7 -10 -19 11 -20 -20 -8 -10 -8 -18 -17 -8 -9 -7 -2 20 2 -20 -20 -20 -10 -10 -18 -20 -20 -20 -20 -20 -20 -20 -20 -20 -20 -20 -20 -20
-5 6 -6 -20 -20 -20 -20 -20 -20 -20 -14 -19 -2 9 12 9 12 11 -15 -11 -13 11 17 -9 -10 -7 -11 -4 -2 -6 9 16 2 3 -8 -20 -20 -20 -19 -20 -20 -20 -20 -20 -20 -20 -20 -20 -20 -15 -18 -20 -20 -20
1 -20 -20 -20 -20 -20 -20 -20 -20 -20 -20 8 2 13 21 -6 3 16 11 -16 -20 20 14 4 -9 -2 -1 2 8 3 8 -1 9 -6 -10 -20 -20 -9 7 3 -3 -11 -20 -19 -20 -20 -20 -20 -20 -20 -20 -20 -20 -20
-20 -20 -20 -20 -20 -20 -20 -20 -20 -17 9 15 9 6 0 -3 -6 -6 -20 -11 17 7 -15 -10 -1 -17 -12 1 20 -4 -6 -9 2 -1 -14 -6 -20 -16 2 2 -2 2 -13 -20 -20 -18 -20 -20 -20 -20 -20 -20 -20 -20
-20 -20 -20 -20 -20 -20 -11 -15 -4 -4 12 8 11 11 -2 -20 -20 -20 -20 -20 -11 -16 -12 -9 -20 -9 14 1 -7 -8 0 -20 -9 -13 -3 -20 -4 -6 -5 -11 -20 -20 -8 -17 -20 -20 -20 -20 -20 -20 -20 -20 -20 -20
-20 -20 -20 -20 -20 -20 -20 -9 -9 6 18 1 -20 -20 -12 10 4 -20 -8 -20 -4 1 -8 -10 3 5 1 1 8 -18 -14 -20 -20 -8 -11 -15 -20 -20 -9 -19 -20 -17 -20 -20 -20 -20 -20 -20 -20 -20 -20 -20 -20 -14
-20 -20 -20 -20 -20 -20 1 8 -20 -14 1 4 -20 -4 -0 1 -12 -16 -20 -20 -20 0 5 -1 -20 -20 -20 -17 -20 -20 -20 -20 -20 -20 -20 -20 -19 -20 -20 -20 -20 -20 -20 -20 -20 -20 -20 -20 -20 -20 -5 10 1 -20
-20 -20 -20 -20 -20 -17 -13 3 -18 -10 -20 -20 -17 -20 -4 6 -9 3 0 -13 -20 -3 7 -13 -1 -20 -20 -20 -20 -20 -20 -20 -20 -20 -20 -20 -16 -14 -3 -19 -20 -1 -5 -20 -20 -20 -18 -20 -20 -20 7 -20 -20 -20
-20 -20 -20 -20 -20 -14 -8 8 -3 -3 -6 -18 -20 -10 -20 -20 -20 -13 -12 -20 0 -8 -20 -20 -20 -20 -20 -20 -20 -20 -20 -20 -20 -20 -20 -20 -19 -14 -5 -20 -3 4 2 -8 -4 -20 6 -19 -14 -7 -20 -10 -11 -20
-20 -20 -20 -20 -10 -8 -8 -20 -20 -20 -20 -8 -3 -5 -8 -20 -20 -17 -7 5 -8 -20 -20 -20 -20 -20 -20 -20 -20 -20 -20 -20 -20 -20 -18 -20 -20 -20 -20 -20 0 1 -13 -8 -12 11 -20 -1 -8 -12 -4 -1 -20 -17
-20 -20 -20 -20 -12 -4 -2 1 -0 -4 -2 -17 -20 -3 -20 -20 -20 -1 -19 5 -20 -20 -20 -20 -20 -20 -16 -3 -20 -20 -20 -20 -20 -20 -20 -20 -20 -19 -20 -19 -19 -15 5 11 7 -5 1 -1 -2 -20 6 8 3 2
-20 -20 -3 -11 -20 9 8 1 -14 -17 -2 -12 -14 -17 -20 -18 -17 0 -3 -11 -11 -20 -19 -11 -10 2 -20 -20 -20 -20 -20 -20 -20 -20 -20 -20 -20 -20 -3 6 6 5 -7 3 -2 -5 1 -11 8 -7 5 -20 -20 -20
-20 -20 -20 -20 2 -7 -13 -5 2 -1 -12 -6 -3 -20 -20 -17 -4 6 -20 -20 -20 -20 -16 -20 -20 -9 -19 -20 -20 -20 -20 -20 -20 -20 -20 -20 -20 -11 -20 -10 6 -6 -20 -16 -2 -19 -20 7 -7 -1 -18 -20 -20 -20
-19 -20 -3 -8 -7 -17 7 12 -4 2 -0 1 -4 -15 -4 5 18 -17 -20 -20 -20 -20 -20 -20 -20 -20 -20 -20 -20 -20 -20 -20 -20 -20 -20 -20 -20 -18 -19 5 -20 -20 -6 5 3 -12 -0 -11 -9 -20 -20 -9 -18 -20
-20 -20 -18 -20 2 -6 -5 13 14 20 -20 8 -6 -13 10 -20 -20 -20 -20 -20 -20 -20 -6 -18 -0 -18 -18 -20 -20 1 -20 -19 -20 -18 -10 -5 -0 -4 -19 -2 3 4 5 1 -13 -14 -16 -17 -20 -17 -20 -20 -20 -20
-5 -20 -4 -1 -7 1 9 -7 1 -13 -20 -20 -20 -20 -20 -20 -20 -20 -20 -20 -20 -20 -0 -4 -4 -0 -2 -1 -3 -1 -7 -3 6 0 1 -14 -10 -20 -6 -4 -1 -6 -5 -14 -20 -16 -20 -20 -20 -20 -20 -20 -20 -20
-13 -6 -4 2 5 7 -20 -16 -14 -17 -20 -20 -20 -20 -13 -14 -4 -20 -20 -20 -20 -14 -20 -19 -19 -1 -5 3 -0 -20 -0 -6 -15 -20 -15 -20 -20 -12 -5 -7 -8 -8 -20 -20 -20 -20 -20 -20 -20 -20 -20 -20 -20 -20
-20 -20 -1 2 2 -20 -20 -20 -20 -20 -20 -20 -20 -20 -20 -20 -19 -20 -20 -14 -15 -20 6 -5 -20 -20 -20 -8 7 -19 -11 -19 -1 -20 -20 -4 -1 -9 -3 -6 -19 -20 -20 -20 -20 -20 -20 -20 -20 -20 -20 -20 -20 -20
11 7 -15 1 -4 -17 -20 -20 -20 -20 -20 -20 -19 -20 -20 -20 -20 -20 -20 -17 -19 -17 -14 0 -15 2 -20 -20 -7 -20 -20 -11 0 10 4 -20 -20 -18 -13 -6 -5 -8 -20 -20 -20 -20 -20 -20 -20 -20 -20 -20 -20 -20

GFSWCAN_prec_radar_111.txt.gz
Reflectivity
6 -9 14 20 22 12 15 21 15 7 16 7 12 11 27 29 22 24 -3 20 1 23 36 33 -20 -19 2 21 23 -1 -20 -20 -20 -20 -20 3 9 -14 -20 -20 -20 -20 -20 -20 -20 -20 -3 -20 -20 -20 -20 -20 -20 -20
-20 -12 18 12 -16 -20 2 4 -10 -16 -2 -19 11 23 37 28 16 -20 11 22 9 35 30 29 22 31 33 -2 -10 -9 -20 -18 -19 -18 -15 -14 5 -12 -20 -18 -20 -11 -20 -20 -20 -20 -20 -20 -20 -13 -20 -20 -20 -20
-20 11 2 -15 5 5 0 -20 -16 -15 -20 -7 -2 24 17 -10 -19 4 -2 21 30 29 24 22 24 20 30 14 -20 -20 -20 -20 -20 -20 -20 -20 5 -20 -20 -20 -20 -20 -20 -20 -20 -20 -20 -20 -20 -20 -20 -20 -20 -20
-16 10 12 18 27 35 39 30 -9 4 -5 2 25 20 -12 2 -20 22 16 27 30 24 10 -8 13 19 -2 -20 -20 -20 -20 -8 -20 -20 -20 -2 18 -15 -20 -20 -20 -20 -20 -20 -12 -20 -13 -20 -20 -20 -20 -20 -20 -20
-1 12 13 37 36 28 25 23 22 27 22 -1 1 -8 -4 -10 15 10 21 27 32 -1 -19 -20 -13 -16 -20 -20 -20 -20 -20 -20 -20 -20 -20 10 -9 -20 -20 -20 -20 -20 -20 -20 -20 -20 -20 -20 -20 -20 -20 -20 -20 -20
11 8 32 40 32 13 -19 -19 -19 -20 -20 -15 -20 -20 -19 18 26 21 32 13 -2 -20 -20 -20 -20 -20 -20 -20 -20 -20 -20 -20 -20 -20 -20 -20 -20 -20 -20 -20 -20 -20 -20 -20 -20 -20 -20 -20 -20 -20 -20 -20 -20 -20
15 34 31 33 4 -20 -20 -20 -20 4 -20 10 -14 12 27 21 16 0 16 11 -20 -20 -20 -20 -20 -20 -20 -20 -20 -20 -20 -20 -20 -20 -20 -20 -20 -20 -20 -20 -20 -20 -20 -20 -20 -20 -20 -20 -19 -20 -20 -20 -20 -20
28 35 27 14 -20 -20 -20 -20 -8 4 -4 15 12 -6 13 5 -20 -16 -20 -20 -20 -17 -20 -20 -20 -20 -20 -20 -20 -20 -20 -20 -20 -20 -20 -20 -20 -20 -20 -20 -20 -20 -20 -20 -20 -20 -20 -20 -20 -20 -20 -20 -20 -20
35 33 17 -20 -20 -20 -20 -20 1 -20 -20 -20 -20 3 25 26 -14 -12 -10 -20 -17 -13 -20 -20 -20 -20 -20 -20 -20 -20 -20 -20 -20 -20 -20 -20 -20 -20 -20 -20 -20 -20 -20 -20 -20 -20 -20 -20 -20 -20 -20 -20 -20 -20
32 14 -17 -20 -20 -20 -19 19 -20 -20 -20 -20 8 3 23 -20 -20 -18 -20 -20 -20 -20 -20 -20 -20 -20 -20 -20 -20 -20 -20 -20 -20 -20 -20 -20 -20 -20 -20 -20 -20 -20 -20 -20 -20 -20 -20 -20 -20 -20 -20 -20 -20 -20
16 -2 -20 -20 -20 -20 -20 -20 -20 -20 -15 18 25 -6 -20 -16 -20 -20 -20 -20 -20 -20 -20 -20 -20 -20 -20 -20 -20 -20 -20 -20 -20 -20 -20 -20 -20 -20 -20 -20 -20 -20 -20 -20 -20 -20 -20 -20 -20 -20 -20 -20 -20 -20
-1 -20 -20 -20 -15 8 -20 -20 -20 -16 -20 -20 -20 -20 -19 -12 -20 -20 -20 -20 -20 -20 -20 -20 -20 -20 -20 -20 -20 -20 -20 -20 -0 -20 -20 -20 -20 -20 -20 -20 -20 -20 4 -15 -20 -20 -20 -20 -20 -15 5 -1 -20 -20
6 -20 -4 -16 -20 -20 -20 -20 -20 -1 -20 -20 -20 -7 -9 -20 -20 -20 -20 -20 -20 -20 -20 -20 -20 -20 -20 -20 -20 -20 -20 -20 -20 -20 -20 -20 -20 -20 -20 -20 -20 -20 -19 -20 -20 -20 -20 -20 -2 15 -1 -20 -19 -20
3 7 -5 -20 -20 -20 -15 -17 -18 -20 -20 -20 -20 -20 -20 -20 -20 -20 -20 -20 -20 -20 -20 -20 -20 -20 -20 -20 -20 -20 -20 -20 -20 -20 -7 -20 -20 -20 -20 -19 -20 -19 -20 -20 -20 -20 -20 -20 -19 7 9 -13 -14 -20
-20 -20 -19 -20 -20 -20 -20 -20 -20 -20 -20 -20 -20 -18 -20 -20 -20 -20 -20 -20 -20 -20 -20 -20 -20 -20 -20 -20 -20 -20 -20 -20 -20 -3 -6 -20 -20 -20 -20 -20 -20 -20 -20 -20 -20 -20 -20 -20 -20 -20 -20 -20 -20 -20
-20 -19 -20 -10 -17 -20 -20 -20 -20 -20 -20 -20 -20 -1 -20 -20 -20 -20 -20 -20 -20 -20 -20 -20 -20 -20 -20 -20 -20 -20 -7 -20 -18 -15 -20 -20 -20 -20 -20 -20 -20 -20 -20 -20 -20 -20 -18 -20 -20 -20 -20 -20 -20 -20
-20 -20 -20 -20 -20 -20 -20 -20 -20 -20 -20 -20 -19 3 4 -20 -20 9 -20 -20 -20 -20 -20 -20 -20 -20 -20 -20 -20 -20 -20 -20 -20 -3 -4 -20 -20 -20 -20 -20 -20 -20 -20 -20 -20 -20 -20 -20 -20 -20 -20 -20 -20 -20
-20 -20 -20 -20 -20 -20 -20 -20 -20 -20 -20 -17 -18 -11 -20 -20 -20 -20 -20 -20 -20 -20 -20 -20 -20 -20 -20 -20 -15 -1 -19 -12 -20 -17 -20 -20 -20 -20 -20 -20 -20 -20 -20 -20 -20 -20 -20 -20 -20 -20 -20 -20 -20 -20
-20 -20 -20 -20 -20 -20 -20 -20 -20 -20 -10 -20 4 -20 -20 -20 -20 -20 -20 -20 -20 -20 -20 -20 -20 -20 -10 -20 -20 -20 3 -16 -20 -20 -20 -20 -20 -20 -20 -20 -20 -20 -20 -20 -20 -20 -20 -20 -20 -20 -20 -20 -20 -20
-20 -20 -20 -20 -20 -20 -20 -20 -20 -20 -17 -20 -20 -20 -20 -20 -20 -20 -20 -20 -20 -20 -20 -20 -17 -20 -20 -20 -10 -18 -20 -20 -20 -20 -18 -18 -20 -20 -20 -20 -20 -20 -20 -20 -20 -20 -20 -20 -20 -20 -20 -20 -20 -20
-20 -20 -20 -20 -20 -20 -20 -18 -9 -20 -1 -20 -20 -8 -20 -20 -20 -20 -20 -20 -20 -20 -9 -20 -20 -20 -19 -13 12 9 -20 -20 -20 -20 -20 -20 -20 -20 -20 -20 -20 -20 -20 -20 -20 -20 -20 -20 -20 -20 -20 -20 -20 -20
-20 -20 -20 -20 -20 -20 -20 -16 -12 -8 -5 -20 -20 7 -3 -19 -19 -2 -20 -20 -20 -19 -20 -20 -13 -20 -20 -20 -20 -20 -20 -20 -20 -20 -20 -20 -20 -20 -14 -20 -20 -20 -20 -20 -20 -20 -20 -20 -20 -20 -20 -20 -20 -20
-20 -20 -20 -20 -20 -20 -19 -14 -15 -20 -7 -13 -20 -20 -20 -17 -20 -20 -20 -20 1 -20 -20 -8 1 -14 -20 -20 -20 -20 -20 -20 -20 -20 -20 -20 -20 -20 -20 -20 -20 -20 -20 -20 -20 -20 -20 -20 -20 -20 -20 -20 -20 -20
-20 -20 -20 -20 -20 -20 -20 -10 -17 -17 -17 -10 -18 -16 -20 -20 -20 -20 -20 -9 -20 -20 -20 -20 -20 -20 -20 -20 -20 -20 -20 -20 -20 -20 -20 -20 -20 -20 -20 -20 -20 -20 -20 -20 -20 1 -20 -20 -20 -20 -20 -20 -20 -20
-20 -20 -20 -20 -20 -20 -20 -20 -20 -20 -20 -20 -20 -19 -20 -20 -20 -20 -20 -20 -20 -20 -20 3 -18 -20 -20 -20 -20 -20 -20 -20 -20 -20 -20 -20 -20 -20 -20 -20 -20 -20 -20 -20 -20 -20 -20 -20 -20 -20 -20 -20 -20 -20
-20 -20 -20 -20 -20 -20 -14 -20 -20 -20 -20 -20 -11 -20 -20 -20 -20 -20 -4 -20 -20 -20 -10 -12 -4 -16 -20 -20 -19 -18 -20 -20 -20 -20 -20 -20 -20 -20 -20 -20 -19 -14 -20 -20 -20 -20 -20 -20 -20 -20 -20 -20 -20 -20
-20 -20 -20 -20 -20 -20 -20 -19 -20 -20 -20 -20 -20 -20 -20 -20 -20 -20 -5 -20 -20 -20 -10 -20 -20 -20 -20 -20 -20 -20 -20 -20 -20 -20 -20 -20 -20 -20 -20 -20 -20 -20 -20 -20 -20 -20 -20 -20 -20 -20 -20 -20 -20 -20
-20 -20 -20 -20 -20 -20 -20 -20 -20 -20 -20 -20 -20 -20 -20 -20 -4 -4 -20 -20 -20 -20 -20 -20 -20 -20 -20 -20 -20 -20 -20 -20 -20 -20 -20 -20 -20 -20 -20 -20 -20 -20 -20 -20 -20 -20 -20 -20 -20 -20 -20 -20 -20 -20
-20 -20 -20 -20 -19 -20 -20 -19 -5 -13 -20 -20 -20 -1 -20 -19 4 -0 0 -20 -20 -20 -20 -20 -20 -20 -20 -20 -20 -20 -20 -20 -20 -20 -20 -20 -20 -20 -20 -20 -20 -20 -20 -20 -20 -20 -20 -20 -20 -20 -20 -20 -20 -20
-20 -20 -20 -20 -20 -20 -20 -15 -20 -20 -20 -20 -20 -20 -20 -19 -20 -3 -19 -11 -20 -11 -20 -20 -20 -20 -20 -20 -16 -20 -20 -20 -20 -20 -20 -20 -20 -20 -20 -20 -20 -20 -20 -20 -18 1 -18 -20 -20 -20 -20 -20 -20 -20
-20 -20 -20 -20 -20 -20 -20 -20 -20 -20 -20 -20 -20 -20 -20 -20 -4 3 -11 -14 -3 -15 -15 -18 -20 -9 -20 -20 -20 -20 -20 -16 -20 -20 -20 -20 -20 -20 -20 -20 -20 -20 -20 -20 -20 -20 -20 -20 -20 -20 -20 -20 -20 -20
-20 -13 -19 -20 -20 -20 -20 -20 -20 -20 -20 -20 -20 -20 -20 -20 -20 -20 -20 -20 -20 -14 7 -1 -6 1 0 -19 -20 -20 -20 -20 -20 -20 -20 -20 -20 -20 -20 -20 -20 -20 -20 -20 -20 -20 -20 -20 -20 -20 -20 -20 -20 -20
-12 -9 -1 -20 -20 -20 -20 -20 -20 -20 -20 -20 -20 -20 -20 -20 -20 -20 -20 -20 -20 -20 -18 -16 -17 -19 -20 -20 -20 -20 -20 -20 -19 -8 -20 -20 -20 -20 -20 -20 -20 -20 -20 -20 -20 -20 -20 -20 -20 -20 -20 -20 -20 -20

GFSWCAN_prec_radar_114.txt.gz
Reflectivity
-13 -19 -11 11 36 20 21 21 17 17 14 -11 -20 -17 -19 -3 20 27 26 26 23 28 -20 -4 -4 8 -6 -20 -20 12 18 18 15 -20 -20 -20 -20 -20 -20 -20 -20 -9 -20 -20 -20 -20 -20 -20 -20 -20 -20 -20 -20 -20
-8 -20 -19 16 21 20 21 23 30 17 16 18 20 -20 21 7 4 31 24 25 7 -20 -16 -1 20 28 -16 11 -20 -20 11 17 0 -20 -20 -20 -20 -18 -20 -20 -20 -20 -20 -20 -20 -20 -20 -20 -20 -20 -20 -20 -20 -20
-20 -20 -4 15 13 6 -19 -20 -11 -8 10 13 -20 11 23 32 34 17 24 25 11 -3 13 30 28 -1 -12 -13 -19 7 -20 -20 -20 -20 -20 -20 -20 4 -20 -7 -20 -20 -20 -20 -20 -20 -20 -20 -20 -20 -20 -20 -20 -20
-20 -20 9 1 -14 -1 -20 -11 3 -8 -20 -19 -5 21 33 36 32 23 -13 -11 -14 -3 -10 29 28 29 31 28 13 -10 -5 -20 -20 -20 -20 -20 -3 -13 -20 -20 -20 -20 -20 -20 -13 -20 -20 -19 -20 -20 -20 -20 -20 -20
-20 0 12 1 22 4 14 -7 -8 -1 -0 -12 6 28 30 21 -20 -20 -20 -2 -5 -20 -20 -10 7 19 20 -16 -20 -20 -20 -20 -20 -20 -20 -20 -16 -20 -20 -20 -20 -20 -20 -20 -20 -20 -20 -20 -20 -20 -20 -20 -20 -20
10 6 20 36 37 38 8 -13 6 -3 -17 0 24 18 -19 10 12 -12 30 -1 -1 -20 -20 -18 -20 -20 -20 -8 -19 -20 -20 -20 -20 -20 -20 -20 -19 -12 -20 -20 -20 -20 -20 -20 -20 -20 -20 -20 -20 -20 -20 -20 -20 -20
19 33 37 32 28 27 20 12 18 12 23 18 -2 -20 -14 3 -20 3 -6 19 -20 -20 -20 -20 -20 -20 -20 -20 -20 -20 -20 -20 -20 -20 -20 -20 -20 -20 -20 -20 -20 -20 -20 -20 -20 -20 -20 -20 -19 -20 -20 -20 -20 -20
36 21 19 3 -8 -19 -20 -16 -19 -20 -20 -20 -15 -2 19 17 -16 -0 -20 -19 -20 -20 -20 -20 -20 -20 -20 -20 -20 -20 -20 -20 -20 -20 -20 -20 -20 -20 -20 -20 -20 -20 -20 -20 -20 -20 -20 -20 -20 -20 -20 -20 -20 -20
33 11 -20 -20 -15 4 11 8 2 -5 2 -2 24 32 24 16 13 8 0 -20 -20 -20 -20 -20 -20 -20 -20 -20 -20 -20 -20 -20 -20 -20 -20 -20 -20 -20 -20 -20 -20 -20 -20 -20 -20 -20 -20 -20 -20 -20 -20 -20 -20 -20
14 -20 -19 10 -3 7 4 -20 8 7 12 13 28 20 25 8 -15 -20 -20 -20 -20 -20 -20 -20 -20 -20 -20 -20 -20 -20 -20 -20 -20 -20 -20 -20 -20 -20 -20 -20 -20 -20 -20 -20 -20 -20 -20 -20 -20 -20 -20 -20 -20 -20
-20 -20 14 2 -1 -20 -20 -20 -20 6 1 25 -11 -20 -19 -14 -19 -20 -20 -20 -20 -20 -20 -20 -20 -20 -20 -20 -20 -20 -20 -20 -20 -20 -20 -20 -20 -20 -20 -20 -20 -20 -20 -20 -20 -20 -20 -20 -20 -20 -20 -20 -20 -20
-14 -16 2 8 9 -20 -20 -20 -20 -11 19 13 -20 -20 -16 3 -19 -20 -20 -20 -20 -20 -20 -20 -20 -20 -20 -20 -20 -20 -20 -20 -13 -20 -20 -20 -20 -20 -20 -20 -20 -20 -20 -20 -20 -20 -20 -20 -20 -20 -20 -20 -20 -20
-20 -1 7 -15 -20 -20 -19 -9 -18 -20 -6 14 -16 -20 -20 -20 -20 -20 -20 -20 -20 -20 -20 -20 -20 -20 -20 -20 -20 -20 -20 -20 -20 -20 -20 -20 -20 -20 -19 -19 -20 -20 -20 -20 -20 -20 -20 -20 -19 4 6 -20 -20 -20
-20 -20 -20 -20 -20 -6 -10 -11 -18 -16 -19 -20 -20 -20 -20 -20 -20 -20 -20 -20 -20 -20 -20 -20 -20 -20 -20 -20 -20 -20 -20 -20 -20 -20 -20 -16 -20 -20 -20 -20 -20 -20 -20 -20 -20 -20 -20 -20 3 -14 -6 8 6 -5
-20 -20 -20 -20 -20 -20 -20 -20 -20 -20 -20 -20 -20 -20 -20 -20 -20 -19 -20 -20 -20 -20 -20 -20 -20 -20 -20 -20 -20 -20 -20 -20 -20 -20 -20 -20 -20 -20 -20 -20 -20 -20 -20 -20 -20 -20 -18 -7 -13 -8 5 3 8 1
-20 -20 -20 -20 -20 -20 -20 -12 -20 -20 -16 -20 -20 -6 -20 -20 -20 -20 -20 -20 -20 -20 -20 -20 -20 -20 -20 -20 -20 -20 -20 -20 -20 -20 -20 -20 -20 -20 -20 -20 -20 -20 -20 -20 -20 -15 12 11 -1 2 10 10 10 -4
-20 -20 -20 -20 -20 -20 -20 -20 -20 -20 -20 -20 -20 -13 -20 -20 -18 -17 -20 -20 -20 -20 -20 -20 -20 -20 -20 -20 -20 -20 -20 -20 -20 -20 -20 -20 -20 -20 -20 -20 -20 -20 -20 -20 -20 -15 2 7 -19 -20 -18 -11 -20 -20
-17 -20 -20 -20 -20 -20 -20 -20 -20 -20 -20 -11 -18 -20 -20 -20 -14 -20 -20 -20 -20 -20 -20 -20 -20 -20 -20 -20 -20 -20 -20 -20 -20 -20 -19 -19 -20 -20 -20 -20 -17 -20 -19 -17 -19 -20 2 -2 -20 -20 -20 -20 -20 -20
-20 -20 -20 -20 -20 -20 -20 -20 -20 -20 -15 -20 -19 -20 -20 -20 -20 -20 -20 -20 -20 -20 -20 -20 -20 -20 -20 -20 -20 -20 -20 -20 -20 -20 -20 -20 -20 -20 -20 -20 -20 -20 -20 -20 -20 -20 -20 -20 -4 -3 -12 -20 -20 -20
-20 -20 -20 -20 -20 -20 -20 -20 -20 -20 -20 -20 -20 -20 -20 -20 -20 -20 -20 -20 -20 -20 -20 -20 -20 -20 -20 -20 -20 -20 -20 -20 -20 -20 -19 -20 -20 -20 -20 -20 -20 -20 -20 -20 -20 -20 -20 -20 -20 -20 -20 -20 -20 -20
-20 -20 -20 -20 -20 -20 -20 -20 -20 -20 -20 -20 -20 -20 -20 -20 -20 -20 -20 -20 -20 -20 -20 -0 -2 -20 -20 -20 -11 -20 -20 -20 -20 -20 -20 -20 -20 -20 -20 -20 -20 -20 -20 -20 -20 -20 -20 -20 -20 -20 -20 -20 -20 -20
-20 -20 -20 -20 -20 -20 -20 -15 -14 -20 -20 -20 -20 -19 -20 -20 -18 -20 -20 -20 -20 -20 -20 -20 -3 -20 -20 -20 -17 -20 -20 -20 -20 -19 -20 -20 -20 -20 -20 -20 -20 -20 -20 -20 -20 -20 -20 -20 -20 -13 -17 -20 -20 -20
-20 -20 -20 -20 -20 -20 -20 -20 -20 -9 -12 -20 -20 -20 -20 -20 -20 -20 -20 -20 -20 -20 -20 -20 -16 -20 -20 -20 -18 -20 -20 -20 -20 -20 -20 -20 -20 -20 -20 -20 -20 -20 -20 -20 -20 -20 -20 -20 -20 -14 -11 -20 -20 -20
-20 -20 -20 -20 -20 -20 -20 -20 -20 -20 -20 -20 -20 -19 -20 -17 -20 -20 -20 -20 -20 -20 -20 -20 -20 -20 -20 -20 -20 -20 -20 -20 -20 -20 -20 -20 -20 -20 -20 -20 -20 -20 -20 -20 -20 -20 -20 -20 -20 -20 -20 -20 -20 -20
-20 -20 -20 -20 -20 -20 -20 -20 -20 -20 -20 -20 -20 -20 -20 -20 -20 -20 -20 -20 -20 -20 -5 6 -20 -20 -20 -20 -20 -20 -20 -20 -20 -20 -20 -20 -20 -20 -20 -20 -20 -20 -20 -20 -20 -20 -20 -20 -20 -20 -20 -20 -20 -20
-20 -20 -20 -20 -20 -20 -20 -20 -20 -20 -20 -20 -20 -20 -20 -20 -20 -20 -20 -20 -20 -20 -20 -5 -17 -17 -20 -20 -20 -20 -20 -20 -20 -20 -20 -20 -20 -20 -20 -20 -20 -16 -20 -20 -20 -20 -20 -20 -20 -20 -20 -20 -20 -20
-20 -20 -20 -20 -20 -20 -20 -20 -20 -20 -20 -20 -20 -20 -20 -20 -20 -20 5 -5 -20 -20 -13 -8 -16 -20 -20 -20 -20 -20 -20 -20 -20 -20 -20 -20 -20 -20 -20 -20 -20 -20 -20 -20 -20 -20 -20 -20 -20 -20 -20 -20 -20 -20
-20 -20 -20 -20 -20 -20 -20 -20 -20 -20 -20 -20 -20 -20 -20 -20 -20 -20 -20 -20 -20 -20 -20 -20 -20 -20 -20 -20 -20 -20 -20 -20 -20 -20 -20 -20 -20 -20 -20 -20 -20 -20 -20 -20 -20 -20 -20 -20 -20 -20 -20 -20 -20 -20
-20 -20 -20 -20 -20 -20 -20 -20 -20 -20 -20 -20 -20 -20 -20 -4 -20 -14 -5 1 -13 -20 -20 -20 -20 -20 -20 -20 -20 -20 -20 -20 -20 -20 -20 -20 -20 -20 -20 -20 -20 -20 -20 -20 -17 -19 -20 -20 -20 -20 -20 -20 -20 -20
-20 -20 -20 -20 -20 -20 -20 -18 -20 -20 -20 -20 -20 -20 -20 5 1 3 3 4 1 5 -12 -20 -13 -20 -20 -20 -20 -20 -20 -20 -20 -20 -20 -20 -20 -20 -20 -20 -20 -20 -20 -20 -15 2 -13 -20 -20 -17 -20 -20 -20 -20
-20 -20 -20 -20 -20 -20 -20 -2 1 -13 -20 -20 -20 -20 -20 -20 -13 12 -8 -1 -1 -19 -14 -17 -14 -10 -10 -16 -20 -20 -20 -20 -20 -20 -20 -20 -20 -20 -20 -20 -20 -20 -20 -20 -20 -20 -20 -20 -20 -20 -20 -20 -20 -20
-20 -20 -20 -20 -20 -5 -15 -20 -20 -20 -20 -20 -20 -20 -20 -20 -20 -20 -20 -19 -20 -19 5 -7 -20 -20 -20 -12 -20 -20 -20 -20 -20 -20 -20 -20 -20 -20 -20 -20 -20 -20 -20 -20 -20 -20 -20 -20 -20 -20 -20 -20 -20 -20
-20 -20 -20 -18 -20 -20 -20 -20 -20 -20 -20 -20 -20 -20 -20 -20 -20 -20 -20 -20 -20 -20 -20 -20 -20 -20 -20 -20 -20 -19 -8 -20 -20 -17 -20 -20 -20 -20 -20 -20 -20 -20 -20 -20 -20 -20 -20 -20 -20 -20 -20 -20 -20 -20